TimeCDT,TemperatureF,Dew PointF,Humidity,Sea Level PressureIn,VisibilityMPH,Wind Direction,Wind SpeedMPH,Gust SpeedMPH,PrecipitationIn,Events,Conditions,WindDirDegrees,DateUTC
12:14 AM,33.8,26.6,75,30.15,10.0,Calm,Calm,-,N/A,,Overcast,0,2012-11-03 05:14:00
12:33 AM,33.8,26.6,75,30.15,10.0,ESE,4.6,-,N/A,,Overcast,110,2012-11-03 05:33:00
12:53 AM,33.8,26.6,75,30.15,10.0,Calm,Calm,-,N/A,,Overcast,0,2012-11-03 05:53:00
1:14 AM,33.8,26.6,75,30.16,10.0,Calm,Calm,-,N/A,,Overcast,0,2012-11-03 06:14:00
1:33 AM,33.8,26.6,75,30.16,10.0,Calm,Calm,-,N/A,,Mostly Cloudy,0,2012-11-03 06:33:00
1:53 AM,33.8,26.6,75,30.15,10.0,Calm,Calm,-,N/A,,Overcast,0,2012-11-03 06:53:00
2:13 AM,33.8,26.6,75,30.15,10.0,Calm,Calm,-,N/A,,Mostly Cloudy,0,2012-11-03 07:13:00
2:33 AM,32.0,26.6,80,30.15,10.0,Calm,Calm,-,N/A,,Mostly Cloudy,0,2012-11-03 07:33:00
2:53 AM,32.0,26.6,80,30.15,10.0,Calm,Calm,-,N/A,,Mostly Cloudy,0,2012-11-03 07:53:00
3:13 AM,32.0,26.6,80,30.15,10.0,Calm,Calm,-,N/A,,Overcast,0,2012-11-03 08:13:00
3:33 AM,33.8,26.6,75,30.15,10.0,Calm,Calm,-,N/A,,Overcast,0,2012-11-03 08:33:00
3:54 AM,33.8,26.6,75,30.15,10.0,Calm,Calm,-,N/A,,Overcast,0,2012-11-03 08:54:00
4:13 AM,33.8,26.6,75,30.15,10.0,Calm,Calm,-,N/A,,Mostly Cloudy,0,2012-11-03 09:13:00
4:54 AM,32.0,26.6,80,30.16,7.0,Calm,Calm,-,N/A,Snow,Light Snow,0,2012-11-03 09:54:00
5:13 AM,32.0,28.4,87,30.16,7.0,SSW,4.6,-,N/A,Snow,Light Snow,210,2012-11-03 10:13:00
5:33 AM,30.2,28.4,93,30.16,10.0,Calm,Calm,-,N/A,,Mostly Cloudy,0,2012-11-03 10:33:00
5:54 AM,32.0,28.4,87,30.16,10.0,SSE,4.6,-,N/A,,Mostly Cloudy,150,2012-11-03 10:54:00
6:13 AM,32.0,30.2,93,30.16,10.0,Calm,Calm,-,N/A,,Mostly Cloudy,0,2012-11-03 11:13:00
6:33 AM,32.0,30.2,93,30.16,10.0,Calm,Calm,-,N/A,,Overcast,0,2012-11-03 11:33:00
6:53 AM,32.0,30.2,93,30.16,10.0,ESE,4.6,-,N/A,,Overcast,110,2012-11-03 11:53:00
7:13 AM,30.2,28.4,93,30.16,10.0,Calm,Calm,-,N/A,,Overcast,0,2012-11-03 12:13:00
7:33 AM,30.2,28.4,93,30.17,10.0,Calm,Calm,-,N/A,,Overcast,0,2012-11-03 12:33:00
7:53 AM,30.2,30.2,100,30.17,10.0,Calm,Calm,-,N/A,,Overcast,0,2012-11-03 12:53:00
8:13 AM,30.2,30.2,100,30.17,10.0,Calm,Calm,-,N/A,,Overcast,0,2012-11-03 13:13:00
8:33 AM,30.2,30.2,100,30.18,10.0,Calm,Calm,-,N/A,,Overcast,0,2012-11-03 13:33:00
8:53 AM,32.0,30.2,93,30.18,10.0,ESE,4.6,-,N/A,,Overcast,110,2012-11-03 13:53:00
9:13 AM,32.0,30.2,93,30.18,10.0,ESE,4.6,-,N/A,,Mostly Cloudy,110,2012-11-03 14:13:00
9:34 AM,32.0,30.2,93,30.19,10.0,East,5.8,-,N/A,,Overcast,100,2012-11-03 14:34:00
9:53 AM,32.0,30.2,93,30.19,10.0,ESE,3.5,-,N/A,,Overcast,120,2012-11-03 14:53:00
10:13 AM,33.8,30.2,87,30.19,10.0,SE,4.6,-,N/A,,Overcast,130,2012-11-03 15:13:00
10:33 AM,33.8,30.2,87,30.19,10.0,SE,4.6,-,N/A,,Overcast,130,2012-11-03 15:33:00
10:53 AM,33.8,30.2,87,30.19,10.0,SSE,4.6,-,N/A,,Overcast,150,2012-11-03 15:53:00
11:13 AM,33.8,30.2,87,30.19,10.0,SE,3.5,-,N/A,,Overcast,130,2012-11-03 16:13:00
11:34 AM,35.6,30.2,81,30.19,10.0,SE,4.6,-,N/A,,Overcast,130,2012-11-03 16:34:00
11:53 AM,35.6,30.2,81,30.19,10.0,SE,5.8,-,N/A,,Overcast,130,2012-11-03 16:53:00
12:13 PM,35.6,30.2,81,30.19,10.0,SE,4.6,-,N/A,,Overcast,130,2012-11-03 17:13:00
12:34 PM,35.6,30.2,81,30.19,10.0,SE,5.8,-,N/A,,Overcast,130,2012-11-03 17:34:00
12:53 PM,35.6,30.2,81,30.18,10.0,SE,4.6,-,N/A,,Overcast,140,2012-11-03 17:53:00
1:13 PM,35.6,30.2,81,30.18,10.0,SSE,4.6,-,N/A,,Overcast,150,2012-11-03 18:13:00
1:34 PM,37.4,30.2,75,30.18,10.0,SE,3.5,-,N/A,,Overcast,130,2012-11-03 18:34:00
1:53 PM,37.4,30.2,75,30.18,10.0,ESE,3.5,-,N/A,,Overcast,120,2012-11-03 18:53:00
2:13 PM,37.4,30.2,75,30.18,10.0,ESE,4.6,-,N/A,,Overcast,120,2012-11-03 19:13:00
2:34 PM,37.4,32.0,81,30.18,10.0,East,4.6,-,N/A,,Overcast,100,2012-11-03 19:34:00
2:53 PM,37.4,32.0,81,30.18,10.0,ESE,4.6,-,N/A,,Overcast,110,2012-11-03 19:53:00
3:13 PM,37.4,32.0,81,30.17,10.0,East,5.8,-,N/A,,Overcast,90,2012-11-03 20:13:00
3:33 PM,37.4,32.0,81,30.17,10.0,East,5.8,-,N/A,,Overcast,100,2012-11-03 20:33:00
3:53 PM,37.4,33.8,87,30.17,10.0,East,6.9,-,N/A,,Overcast,90,2012-11-03 20:53:00
4:13 PM,37.4,32.0,81,30.17,10.0,ESE,6.9,-,N/A,,Overcast,110,2012-11-03 21:13:00
4:33 PM,35.6,32.0,87,30.17,10.0,ESE,6.9,-,N/A,,Overcast,110,2012-11-03 21:33:00
4:53 PM,35.6,32.0,87,30.17,10.0,ESE,6.9,-,N/A,,Overcast,110,2012-11-03 21:53:00
5:13 PM,35.6,32.0,87,30.17,10.0,East,6.9,-,N/A,,Overcast,100,2012-11-03 22:13:00
5:33 PM,35.6,32.0,87,30.17,10.0,East,6.9,-,N/A,,Overcast,100,2012-11-03 22:33:00
5:53 PM,35.6,32.0,87,30.17,10.0,East,5.8,-,N/A,,Overcast,100,2012-11-03 22:53:00
6:13 PM,35.6,32.0,87,30.17,10.0,East,5.8,-,N/A,,Overcast,100,2012-11-03 23:13:00
6:33 PM,35.6,32.0,87,30.18,10.0,East,5.8,-,N/A,,Overcast,90,2012-11-03 23:33:00
6:53 PM,35.6,32.0,87,30.18,10.0,East,4.6,-,N/A,,Overcast,80,2012-11-03 23:53:00
7:13 PM,35.6,32.0,87,30.19,10.0,East,4.6,-,N/A,,Overcast,80,2012-11-04 00:13:00
7:33 PM,35.6,32.0,87,30.19,10.0,East,3.5,-,N/A,,Overcast,80,2012-11-04 00:33:00
7:53 PM,35.6,32.0,87,30.19,10.0,East,4.6,-,N/A,,Light Drizzle,90,2012-11-04 00:53:00
8:13 PM,35.6,32.0,87,30.19,7.0,ENE,3.5,-,N/A,,Light Drizzle,60,2012-11-04 01:13:00
8:33 PM,33.8,32.0,93,30.19,10.0,ENE,4.6,-,N/A,,Mostly Cloudy,70,2012-11-04 01:33:00
8:53 PM,33.8,30.2,87,30.19,10.0,ENE,6.9,-,N/A,,Overcast,60,2012-11-04 01:53:00
9:13 PM,33.8,30.2,87,30.19,10.0,ENE,6.9,-,N/A,,Overcast,70,2012-11-04 02:13:00
9:33 PM,35.6,32.0,87,30.20,10.0,ENE,4.6,-,N/A,,Overcast,70,2012-11-04 02:33:00
9:53 PM,35.6,32.0,87,30.20,10.0,ENE,4.6,-,N/A,,Overcast,70,2012-11-04 02:53:00
10:13 PM,35.6,32.0,87,30.21,10.0,ENE,3.5,-,N/A,,Overcast,60,2012-11-04 03:13:00
10:33 PM,33.8,30.2,87,30.20,10.0,ENE,4.6,-,N/A,,Overcast,60,2012-11-04 03:33:00
10:53 PM,33.8,30.2,87,30.20,10.0,ENE,4.6,-,N/A,,Overcast,60,2012-11-04 03:53:00
11:13 PM,33.8,30.2,87,30.20,10.0,ENE,4.6,-,N/A,,Overcast,70,2012-11-04 04:13:00
11:33 PM,33.8,30.2,87,30.20,10.0,ENE,4.6,-,N/A,,Overcast,70,2012-11-04 04:33:00
11:53 PM,33.8,30.2,87,30.20,10.0,ENE,4.6,-,N/A,,Overcast,70,2012-11-04 04:53:00